| time (UTC) | temp C | wind direction | speed KPH | gust KPH | rain 1hr cm | rain 24hr cm | rain mn cm | humidity % | barometer mb |
| 20260503172124 | 17 | 220 | 0.0 | 6.4 | 0.00 | 0.00 | 0.00 | 77 | 1015.8 |
| 20260503171621 | 18 | 132 | 3.2 | 6.4 | 0.00 | 0.00 | 0.00 | 76 | 1015.8 |
| 20260503171124 | 18 | 214 | 1.6 | 8.0 | 0.00 | 0.00 | 0.00 | 76 | 1015.8 |
| 20260503170621 | 18 | 208 | 1.6 | 3.2 | 0.00 | 0.00 | 0.00 | 75 | 1015.8 |
| 20260503170121 | 18 | 74 | 3.2 | 4.8 | 0.00 | 0.00 | 0.00 | 75 | 1015.7 |
| 20260503160124 | 18 | 219 | 1.6 | 4.8 | 0.00 | 0.00 | 0.00 | 74 | 1015.9 |
| 20260503150621 | 18 | 178 | 4.8 | 11.3 | 0.00 | 0.00 | 0.00 | 72 | 1016.2 |
| 20260503150121 | 18 | 199 | 0.0 | 6.4 | 0.00 | 0.00 | 0.00 | 72 | 1016.3 |
| 20260503140127 | 18 | 348 | 4.8 | 12.9 | 0.00 | 0.00 | 0.00 | 70 | 1016.9 |
| 20260503131124 | 18 | 24 | 1.6 | 12.9 | 0.00 | 0.00 | 0.00 | 69 | 1017.4 |
| 20260503130624 | 18 | 22 | 8.0 | 8.0 | 0.00 | 0.00 | 0.00 | 70 | 1017.5 |
| 20260503130121 | 18 | 19 | 1.6 | 9.7 | 0.00 | 0.00 | 0.00 | 70 | 1017.7 |
| 20260503120127 | 19 | 19 | 3.2 | 8.0 | 0.00 | 0.00 | 0.00 | 69 | 1018.2 |
| 20260503110621 | 18 | 198 | 1.6 | 9.7 | 0.00 | 0.00 | 0.00 | 73 | 1018.5 |
| 20260503110121 | 18 | 218 | 6.4 | 9.7 | 0.00 | 0.00 | 0.00 | 72 | 1018.4 |
| 20260503100121 | 18 | 178 | 8.0 | 9.7 | 0.00 | 0.00 | 0.00 | 66 | 1018.4 |
| 20260503090124 | 18 | 161 | 8.0 | 8.0 | 0.00 | 0.00 | 0.00 | 64 | 1018.3 |
| 20260503081621 | 17 | 277 | 3.2 | 8.0 | 0.00 | 0.00 | 0.00 | 71 | 1018.0 |
| 20260503081121 | 17 | 192 | 3.2 | 12.9 | 0.00 | 0.00 | 0.00 | 71 | 1018.0 |
| 20260503080621 | 17 | 216 | 3.2 | 12.9 | 0.00 | 0.00 | 0.00 | 71 | 1018.0 |
| 20260503080121 | 17 | 221 | 8.0 | 11.3 | 0.00 | 0.00 | 0.00 | 70 | 1017.9 |
| 20260503072625 | 17 | 150 | 0.0 | 4.8 | 0.00 | 0.00 | 0.00 | 68 | 1017.9 |
| 20260503072121 | 17 | 197 | 3.2 | 4.8 | 0.00 | 0.00 | 0.00 | 68 | 1017.8 |
| 20260503071621 | 17 | 215 | 1.6 | 3.2 | 0.00 | 0.00 | 0.00 | 68 | 1017.8 |
| 20260503071121 | 17 | 284 | 0.0 | 4.8 | 0.00 | 0.00 | 0.00 | 68 | 1017.8 |
| 20260503070621 | 17 | 229 | 0.0 | 3.2 | 0.00 | 0.00 | 0.00 | 68 | 1017.8 |
| 20260503070127 | 17 | 217 | 3.2 | 4.8 | 0.00 | 0.00 | 0.00 | 66 | 1017.9 |
| 20260503060121 | 14 | 69 | 3.2 | 4.8 | 0.00 | 0.00 | 0.00 | 68 | 1017.9 |
| 20260503055121 | 13 | 67 | 4.8 | 4.8 | 0.00 | 0.00 | 0.00 | 67 | 1017.9 |
| 20260503054627 | 13 | 61 | 3.2 | 6.4 | 0.00 | 0.00 | 0.00 | 65 | 1017.8 |
| 20260503054121 | 13 | 74 | 6.4 | 6.4 | 0.00 | 0.00 | 0.00 | 66 | 1017.8 |
| 20260503053621 | 13 | 45 | 4.8 | 8.0 | 0.00 | 0.00 | 0.00 | 66 | 1017.8 |
| 20260503053121 | 13 | 65 | 3.2 | 6.4 | 0.00 | 0.00 | 0.00 | 67 | 1017.8 |
| 20260503052624 | 13 | 70 | 4.8 | 6.4 | 0.00 | 0.00 | 0.00 | 67 | 1017.8 |
| 20260503052121 | 13 | 55 | 4.8 | 4.8 | 0.00 | 0.00 | 0.00 | 66 | 1017.7 |
| 20260503051621 | 12 | 55 | 4.8 | 6.4 | 0.00 | 0.00 | 0.00 | 65 | 1017.7 |
| 20260503051121 | 12 | 67 | 3.2 | 3.2 | 0.00 | 0.00 | 0.00 | 67 | 1017.7 |
| 20260503050621 | 12 | 58 | 3.2 | 3.2 | 0.00 | 0.00 | 0.00 | 65 | 1017.7 |
| 20260503050121 | 12 | 63 | 1.6 | 6.4 | 0.00 | 0.00 | 0.00 | 64 | 1017.5 |
| 20260503045621 | 12 | 68 | 4.8 | 8.0 | 0.00 | 0.00 | 0.00 | 65 | 1017.6 |
| 20260503045124 | 12 | 61 | 4.8 | 4.8 | 0.00 | 0.00 | 0.00 | 65 | 1017.5 |
| 20260503044621 | 12 | 65 | 3.2 | 6.4 | 0.00 | 0.00 | 0.00 | 64 | 1017.5 |
| 20260503044121 | 12 | 60 | 3.2 | 8.0 | 0.00 | 0.00 | 0.00 | 63 | 1017.5 |
| 20260503043624 | 12 | 29 | 8.0 | 8.0 | 0.00 | 0.00 | 0.00 | 63 | 1017.5 |
| 20260503043124 | 12 | 57 | 4.8 | 6.4 | 0.00 | 0.00 | 0.00 | 64 | 1017.4 |
| 20260503042621 | 12 | 61 | 4.8 | 6.4 | 0.00 | 0.00 | 0.00 | 64 | 1017.4 |
| 20260503042121 | 12 | 69 | 4.8 | 6.4 | 0.00 | 0.00 | 0.00 | 63 | 1017.4 |
| 20260503041624 | 12 | 53 | 6.4 | 11.3 | 0.00 | 0.00 | 0.00 | 62 | 1017.4 |
| 20260503041121 | 12 | 32 | 6.4 | 9.7 | 0.00 | 0.00 | 0.00 | 62 | 1017.4 |
| 20260503040621 | 12 | 42 | 8.0 | 9.7 | 0.00 | 0.00 | 0.00 | 62 | 1017.4 |
| 20260503040121 | 12 | 52 | 9.7 | 11.3 | 0.00 | 0.00 | 0.00 | 63 | 1017.5 |
| 20260503035624 | 12 | 59 | 8.0 | 9.7 | 0.00 | 0.00 | 0.00 | 62 | 1017.5 |
| 20260503035121 | 12 | 58 | 8.0 | 9.7 | 0.00 | 0.00 | 0.00 | 63 | 1017.4 |
| 20260503034627 | 12 | 32 | 8.0 | 9.7 | 0.00 | 0.00 | 0.00 | 62 | 1017.4 |
| 20260503034125 | 12 | 51 | 8.0 | 12.9 | 0.00 | 0.00 | 0.00 | 62 | 1017.6 |
| 20260503033621 | 12 | 57 | 8.0 | 11.3 | 0.00 | 0.00 | 0.00 | 63 | 1017.6 |
| 20260503033121 | 12 | 71 | 8.0 | 11.3 | 0.00 | 0.00 | 0.00 | 63 | 1017.7 |
| 20260503032621 | 12 | 67 | 6.4 | 12.9 | 0.00 | 0.00 | 0.00 | 62 | 1017.6 |
| 20260503032124 | 12 | 45 | 8.0 | 12.9 | 0.00 | 0.00 | 0.00 | 64 | 1017.6 |
| 20260503031621 | 12 | 57 | 6.4 | 8.0 | 0.00 | 0.00 | 0.00 | 63 | 1017.7 |
| 20260503031127 | 12 | 41 | 8.0 | 11.3 | 0.00 | 0.00 | 0.00 | 62 | 1017.7 |
| 20260503030621 | 12 | 42 | 6.4 | 11.3 | 0.00 | 0.00 | 0.00 | 63 | 1017.8 |
| 20260503030121 | 12 | 45 | 6.4 | 9.7 | 0.00 | 0.00 | 0.00 | 63 | 1017.8 |
| 20260503025624 | 12 | 71 | 6.4 | 9.7 | 0.00 | 0.00 | 0.00 | 63 | 1017.8 |
| 20260503025127 | 12 | 54 | 8.0 | 11.3 | 0.00 | 0.00 | 0.00 | 64 | 1017.8 |
| 20260503024621 | 12 | 53 | 6.4 | 8.0 | 0.00 | 0.00 | 0.00 | 63 | 1017.8 |
| 20260503024121 | 12 | 42 | 6.4 | 9.7 | 0.00 | 0.00 | 0.00 | 62 | 1017.8 |
| 20260503023621 | 12 | 57 | 6.4 | 9.7 | 0.00 | 0.00 | 0.00 | 63 | 1017.9 |
| 20260503023124 | 12 | 57 | 4.8 | 8.0 | 0.00 | 0.00 | 0.00 | 64 | 1017.8 |
| 20260503022624 | 12 | 55 | 4.8 | 8.0 | 0.00 | 0.00 | 0.00 | 62 | 1017.8 |
| 20260503022121 | 12 | 30 | 4.8 | 6.4 | 0.00 | 0.00 | 0.00 | 65 | 1017.8 |
| 20260503021621 | 12 | 61 | 3.2 | 6.4 | 0.00 | 0.00 | 0.00 | 66 | 1017.8 |
| 20260503021121 | 12 | 40 | 3.2 | 4.8 | 0.00 | 0.00 | 0.00 | 65 | 1017.9 |
| 20260503020623 | 12 | 54 | 1.6 | 6.4 | 0.00 | 0.00 | 0.00 | 64 | 1017.8 |
| 20260503020123 | 12 | 37 | 4.8 | 6.4 | 0.00 | 0.00 | 0.00 | 62 | 1017.8 |
| 20260503015623 | 12 | 59 | 4.8 | 9.7 | 0.00 | 0.00 | 0.00 | 62 | 1017.9 |
| 20260503015120 | 12 | 67 | 3.2 | 8.0 | 0.00 | 0.00 | 0.00 | 63 | 1018.0 |
| 20260503014620 | 12 | 42 | 3.2 | 6.4 | 0.00 | 0.00 | 0.00 | 61 | 1018.0 |
| 20260503014120 | 13 | 48 | 3.2 | 8.0 | 0.00 | 0.00 | 0.00 | 60 | 1018.0 |
| 20260503013620 | 12 | 22 | 8.0 | 8.0 | 0.00 | 0.00 | 0.00 | 60 | 1018.0 |
| 20260503013120 | 12 | 15 | 4.8 | 8.0 | 0.00 | 0.00 | 0.00 | 59 | 1018.0 |
| 20260503012620 | 13 | 35 | 3.2 | 9.7 | 0.00 | 0.00 | 0.00 | 60 | 1018.0 |
| 20260503012120 | 12 | 30 | 6.4 | 8.0 | 0.00 | 0.00 | 0.00 | 59 | 1018.0 |
| 20260503011629 | 12 | 55 | 4.8 | 9.7 | 0.00 | 0.00 | 0.00 | 61 | 1018.0 |
| 20260503011120 | 12 | 74 | 6.4 | 11.3 | 0.00 | 0.00 | 0.00 | 61 | 1018.1 |
| 20260503010626 | 12 | 61 | 9.7 | 12.9 | 0.00 | 0.00 | 0.00 | 61 | 1018.0 |
| 20260503010127 | 12 | 44 | 8.0 | 12.9 | 0.00 | 0.00 | 0.00 | 61 | 1018.1 |
| 20260503005620 | 12 | 44 | 8.0 | 11.3 | 0.00 | 0.00 | 0.00 | 61 | 1018.2 |
| 20260503005123 | 12 | 30 | 8.0 | 12.9 | 0.00 | 0.00 | 0.00 | 61 | 1018.2 |
| 20260503004620 | 12 | 35 | 9.7 | 11.3 | 0.00 | 0.00 | 0.00 | 60 | 1018.2 |
| 20260503004123 | 12 | 35 | 8.0 | 9.7 | 0.00 | 0.00 | 0.00 | 60 | 1018.3 |
| 20260503003620 | 12 | 63 | 8.0 | 11.3 | 0.00 | 0.00 | 0.00 | 61 | 1018.3 |
| 20260503003120 | 12 | 64 | 6.4 | 11.3 | 0.00 | 0.00 | 0.00 | 61 | 1018.3 |
| 20260503002623 | 12 | 40 | 6.4 | 11.3 | 0.00 | 0.00 | 0.00 | 61 | 1018.3 |
| 20260503002120 | 12 | 44 | 6.4 | 11.3 | 0.00 | 0.00 | 0.00 | 61 | 1018.4 |
| 20260503001623 | 12 | 69 | 9.7 | 12.9 | 0.00 | 0.00 | 0.00 | 62 | 1018.4 |
| 20260503001129 | 12 | 36 | 9.7 | 11.3 | 0.00 | 0.00 | 0.00 | 62 | 1018.5 |
| 20260503000626 | 12 | 66 | 6.4 | 14.5 | 0.00 | 0.00 | 0.00 | 62 | 1018.5 |
| 20260503000121 | 12 | 44 | 6.4 | 11.3 | 0.00 | 0.00 | 0.00 | 62 | 1018.5 |
| 20260502235620 | 12 | 29 | 6.4 | 12.9 | 0.00 | 0.00 | 0.00 | 62 | 1018.5 |
| 20260502235129 | 12 | 48 | 8.0 | 9.7 | 0.00 | 0.00 | 0.00 | 62 | 1018.5 |
| 20260502234623 | 12 | 42 | 6.4 | 9.7 | 0.00 | 0.00 | 0.00 | 62 | 1018.6 |
| 20260502234123 | 12 | 48 | 6.4 | 12.9 | 0.00 | 0.00 | 0.00 | 62 | 1018.6 |
| 20260502233620 | 12 | 51 | 9.7 | 11.3 | 0.00 | 0.00 | 0.00 | 62 | 1018.7 |
| 20260502233120 | 12 | 47 | 8.0 | 14.5 | 0.00 | 0.00 | 0.00 | 63 | 1018.6 |
| 20260502232623 | 12 | 56 | 6.4 | 11.3 | 0.00 | 0.00 | 0.00 | 62 | 1018.7 |
| 20260502232120 | 12 | 26 | 8.0 | 12.9 | 0.00 | 0.00 | 0.00 | 62 | 1018.7 |
| 20260502231620 | 13 | 47 | 6.4 | 9.7 | 0.00 | 0.00 | 0.00 | 62 | 1018.8 |
| 20260502231123 | 13 | 31 | 6.4 | 12.9 | 0.00 | 0.00 | 0.00 | 62 | 1018.8 |
| 20260502230626 | 13 | 27 | 9.7 | 12.9 | 0.00 | 0.00 | 0.00 | 62 | 1018.8 |
| 20260502230120 | 13 | 38 | 8.0 | 12.9 | 0.00 | 0.00 | 0.00 | 61 | 1018.9 |
| 20260502225626 | 13 | 41 | 6.4 | 9.7 | 0.00 | 0.00 | 0.00 | 63 | 1018.9 |
| 20260502225120 | 13 | 39 | 8.0 | 14.5 | 0.00 | 0.00 | 0.00 | 64 | 1019.0 |
| 20260502224620 | 13 | 57 | 6.4 | 11.3 | 0.00 | 0.00 | 0.00 | 65 | 1019.0 |
| 20260502224120 | 13 | 59 | 6.4 | 8.0 | 0.00 | 0.00 | 0.00 | 63 | 1019.0 |
| 20260502223620 | 13 | 35 | 4.8 | 9.7 | 0.00 | 0.00 | 0.00 | 61 | 1019.0 |
| 20260502223123 | 13 | 53 | 6.4 | 11.3 | 0.00 | 0.00 | 0.00 | 62 | 1019.1 |
| 20260502222620 | 13 | 45 | 4.8 | 9.7 | 0.00 | 0.00 | 0.00 | 64 | 1019.1 |
| 20260502222123 | 13 | 64 | 8.0 | 8.0 | 0.00 | 0.00 | 0.00 | 64 | 1019.2 |
| 20260502221623 | 13 | 57 | 6.4 | 11.3 | 0.00 | 0.00 | 0.00 | 63 | 1019.2 |
| 20260502221120 | 13 | 43 | 6.4 | 11.3 | 0.00 | 0.00 | 0.00 | 63 | 1019.3 |
| 20260502220626 | 13 | 65 | 9.7 | 11.3 | 0.00 | 0.00 | 0.00 | 63 | 1019.3 |
| 20260502220120 | 13 | 46 | 6.4 | 11.3 | 0.00 | 0.00 | 0.00 | 63 | 1019.2 |
| 20260502215621 | 13 | 51 | 6.4 | 8.0 | 0.00 | 0.00 | 0.00 | 64 | 1019.2 |
| 20260502215120 | 13 | 46 | 4.8 | 8.0 | 0.00 | 0.00 | 0.00 | 62 | 1019.1 |
| 20260502214620 | 13 | 48 | 6.4 | 8.0 | 0.00 | 0.00 | 0.00 | 62 | 1019.1 |
| 20260502214120 | 13 | 355 | 4.8 | 11.3 | 0.00 | 0.00 | 0.00 | 63 | 1019.1 |
| 20260502213623 | 13 | 25 | 6.4 | 9.7 | 0.00 | 0.00 | 0.00 | 63 | 1019.2 |
| 20260502213123 | 13 | 50 | 9.7 | 12.9 | 0.00 | 0.00 | 0.00 | 63 | 1019.2 |
| 20260502212626 | 13 | 59 | 6.4 | 9.7 | 0.00 | 0.00 | 0.00 | 63 | 1019.3 |
| 20260502212126 | 13 | 58 | 8.0 | 9.7 | 0.00 | 0.00 | 0.00 | 62 | 1019.3 |
| 20260502211620 | 13 | 58 | 9.7 | 12.9 | 0.00 | 0.00 | 0.00 | 63 | 1019.4 |
| 20260502211126 | 13 | 38 | 8.0 | 9.7 | 0.00 | 0.00 | 0.00 | 63 | 1019.5 |
| 20260502210620 | 13 | 40 | 8.0 | 9.7 | 0.00 | 0.00 | 0.00 | 64 | 1019.5 |
| 20260502210120 | 13 | 55 | 4.8 | 9.7 | 0.00 | 0.00 | 0.00 | 63 | 1019.5 |
| 20260502205623 | 13 | 34 | 8.0 | 12.9 | 0.00 | 0.00 | 0.00 | 62 | 1019.5 |
| 20260502205123 | 13 | 52 | 4.8 | 11.3 | 0.00 | 0.00 | 0.00 | 63 | 1019.5 |
| 20260502204620 | 13 | 66 | 8.0 | 11.3 | 0.00 | 0.00 | 0.00 | 64 | 1019.5 |
| 20260502204120 | 13 | 44 | 8.0 | 9.7 | 0.00 | 0.00 | 0.00 | 63 | 1019.5 |
| 20260502203620 | 13 | 51 | 4.8 | 9.7 | 0.00 | 0.00 | 0.00 | 61 | 1019.5 |
| 20260502203123 | 13 | 50 | 4.8 | 9.7 | 0.00 | 0.00 | 0.00 | 62 | 1019.5 |
| 20260502202620 | 13 | 23 | 8.0 | 9.7 | 0.00 | 0.00 | 0.00 | 62 | 1019.5 |
| 20260502202126 | 13 | 60 | 4.8 | 8.0 | 0.00 | 0.00 | 0.00 | 63 | 1019.5 |
| 20260502201620 | 13 | 52 | 9.7 | 9.7 | 0.00 | 0.00 | 0.00 | 63 | 1019.6 |
| 20260502201123 | 14 | 47 | 4.8 | 8.0 | 0.00 | 0.00 | 0.00 | 63 | 1019.6 |
| 20260502200626 | 14 | 23 | 4.8 | 8.0 | 0.00 | 0.00 | 0.00 | 61 | 1019.5 |
| 20260502200120 | 14 | 19 | 8.0 | 8.0 | 0.00 | 0.00 | 0.00 | 61 | 1019.6 |
| 20260502195623 | 14 | 53 | 6.4 | 9.7 | 0.00 | 0.00 | 0.00 | 63 | 1019.5 |
| 20260502195120 | 14 | 39 | 4.8 | 8.0 | 0.00 | 0.00 | 0.00 | 63 | 1019.5 |
| 20260502194620 | 14 | 61 | 4.8 | 8.0 | 0.00 | 0.00 | 0.00 | 63 | 1019.4 |
| 20260502194126 | 14 | 30 | 6.4 | 8.0 | 0.00 | 0.00 | 0.00 | 63 | 1019.4 |
| 20260502193620 | 15 | 56 | 6.4 | 8.0 | 0.00 | 0.00 | 0.00 | 62 | 1019.4 |
| 20260502193120 | 15 | 33 | 4.8 | 8.0 | 0.00 | 0.00 | 0.00 | 62 | 1019.3 |
| 20260502192620 | 14 | 61 | 6.4 | 8.0 | 0.00 | 0.00 | 0.00 | 63 | 1019.3 |
| 20260502192123 | 14 | 57 | 4.8 | 6.4 | 0.00 | 0.00 | 0.00 | 63 | 1019.2 |
| 20260502191620 | 15 | 72 | 3.2 | 6.4 | 0.00 | 0.00 | 0.00 | 63 | 1019.2 |
| 20260502191126 | 15 | 80 | 3.2 | 6.4 | 0.00 | 0.00 | 0.00 | 63 | 1019.1 |
| 20260502190623 | 15 | 63 | 4.8 | 6.4 | 0.00 | 0.00 | 0.00 | 63 | 1019.1 |
| 20260502190126 | 15 | 29 | 4.8 | 8.0 | 0.00 | 0.00 | 0.00 | 61 | 1019.1 |
| 20260502185620 | 15 | 56 | 3.2 | 6.4 | 0.00 | 0.00 | 0.00 | 62 | 1019.1 |
| 20260502185120 | 15 | 61 | 6.4 | 6.4 | 0.00 | 0.00 | 0.00 | 62 | 1019.0 |
| 20260502184620 | 15 | 65 | 4.8 | 4.8 | 0.00 | 0.00 | 0.00 | 62 | 1019.0 |
| 20260502184123 | 15 | 41 | 0.0 | 6.4 | 0.00 | 0.00 | 0.00 | 62 | 1018.9 |
| 20260502183626 | 15 | 33 | 3.2 | 6.4 | 0.00 | 0.00 | 0.00 | 61 | 1018.9 |
| 20260502183123 | 15 | 62 | 3.2 | 4.8 | 0.00 | 0.00 | 0.00 | 61 | 1019.0 |
| 20260502182625 | 16 | 63 | 3.2 | 4.8 | 0.00 | 0.00 | 0.00 | 61 | 1019.0 |
| 20260502182120 | 16 | 65 | 3.2 | 6.4 | 0.00 | 0.00 | 0.00 | 61 | 1018.9 |
| 20260502181623 | 16 | 60 | 4.8 | 4.8 | 0.00 | 0.00 | 0.00 | 60 | 1018.9 |
| 20260502181120 | 16 | 54 | 1.6 | 4.8 | 0.00 | 0.00 | 0.00 | 61 | 1018.8 |
| 20260502180620 | 16 | 86 | 0.0 | 3.2 | 0.00 | 0.00 | 0.00 | 61 | 1018.8 |
| 20260502180126 | 16 | 86 | 1.6 | 4.8 | 0.00 | 0.00 | 0.00 | 60 | 1018.8 |